Location: Blue Mountain Vista Observatory
(40.6992°N, 75.9422°W)
Time: 14:49:02
(UTC-05:00)

Amateur Radio Satellites - All Passes

Search period start: 23 November 2014 14:19
Search period end: 24 November 2014 14:19
Location: Blue Mountain Vista Observatory, 40.6992°N, 75.9422°W

Satellite Date Start Highest point End Downlink Frequencies (MHz)
Time Altitude Azimuth
DANDE 23 Nov 14:22:55 14:24:00 12° 286° (WNW) 14:25:03 436.750
KKS-1 23 Nov 14:24:45 14:29:06 52° 100° (E) 14:33:25 437.445
VERMONT LUNAR 23 Nov 14:28:37 14:30:26 13° 146° (SE) 14:32:15 437.305
AO-7 23 Nov 14:33:25 14:41:13 48° 63° (ENE) 14:49:04 29.400- 29.500
HORYU 2 23 Nov 14:38:08 14:42:33 77° 257° (WSW) 14:47:01 437.375
BEESAT 23 Nov 14:49:14 14:52:47 21° 295° (WNW) 14:56:20 436.000
SO-50 23 Nov 14:53:26 14:55:12 12° 253° (WSW) 14:56:58 436.795
AUBIESAT-1 23 Nov 14:55:45 14:58:50 17° 302° (WNW) 15:01:54 437.475
M-CUBED/EXP-1 PRIME 23 Nov 14:59:13 15:01:55 15° 303° (WNW) 15:04:37 437.505
STARS 23 Nov 15:26:45 15:30:59 47° 288° (WNW) 15:35:11 437.465
Gurwin Techsat 1B 23 Nov 15:34:18 15:36:31 13° 271° (W) 15:38:45 435.225
MaSat-1 23 Nov 15:34:19 15:37:24 69° 114° (ESE) 15:40:12 437.345
YUBILEINY 23 Nov 15:40:54 15:47:31 25° 279° (W) 15:54:07 435.215
PHONESAT 2.4 23 Nov 15:42:31 15:45:47 29° 154° (SSE) 15:49:03 2401.200-2431.200
JAS-2 23 Nov 15:48:03 15:55:10 47° 67° (ENE) 16:02:34 435.910
RS-15 23 Nov 15:51:19 16:01:44 51° 111° (ESE) 16:12:04 29.354- 29.394
Cubesat XI-IV 23 Nov 15:56:23 15:58:27 12° 58° (ENE) 16:00:30 437.490
KKS-1 23 Nov 16:02:45 16:05:18 15° 296° (WNW) 16:07:50 437.445
VERMONT LUNAR 23 Nov 16:04:54 16:08:24 48° 161° (SSE) 16:11:55 437.305
O/OREOS (USA 219) 23 Nov 16:13:34 16:18:03 77° 67° (ENE) 16:22:31 437.305
AO-7 23 Nov 16:26:32 16:34:05 39° 262° (W) 16:41:43 29.400- 29.500
CUTE-I 23 Nov 16:35:46 16:40:12 27° 66° (ENE) 16:44:39 437.470
MOZHAYETS 4 23 Nov 16:45:29 16:50:00 47° 99° (E) 16:54:29
PHONESAT 2.4 23 Nov 17:20:37 17:24:21 77° 170° (S) 17:28:04 2401.200-2431.200
PRISM 23 Nov 17:22:44 17:25:54 20° 94° (E) 17:29:03 437.425
Cubesat XI-IV 23 Nov 17:32:20 17:37:43 88° 75° (ENE) 17:43:07 437.490
JAS-2 23 Nov 17:33:18 17:40:11 39° 265° (W) 17:47:25 435.910
GONETS M04 23 Nov 17:38:13 17:42:50 15° 59° (ENE) 17:47:25
VERMONT LUNAR 23 Nov 17:43:10 17:46:48 89° 181° (S) 17:50:27 437.305
STRAND 1 23 Nov 17:45:05 17:47:48 14° 91° (E) 17:50:31 437.568
HO-68 23 Nov 18:03:13 18:06:00 13° 50° (NE) 18:08:47 435.675
RS-15 23 Nov 18:03:38 18:14:06 49° 314° (NW) 18:24:41 29.354- 29.394
CUTE-I 23 Nov 18:15:05 18:20:04 39° 262° (W) 18:25:05 437.470
CUBESAT XI-V 23 Nov 18:19:14 18:23:27 33° 96° (E) 18:27:37 437.345
MOZHAYETS 4 23 Nov 18:23:42 18:26:51 18° 295° (WNW) 18:29:59
PCSat 23 Nov 18:43:55 18:46:26 13° 103° (ESE) 18:48:57 145.827
PRISM 23 Nov 18:57:42 19:01:31 33° 290° (WNW) 19:05:19 437.425
CUTE 1.7 & AOD 2 23 Nov 18:57:44 18:59:14 12° 63° (ENE) 19:00:45 437.475
PHONESAT 2.4 23 Nov 18:59:25 19:03:09 82° 187° (S) 19:06:53 2401.200-2431.200
GOMX 1 23 Nov 19:05:51 19:07:38 12° 63° (ENE) 19:09:23 467.674
Cubesat XI-IV 23 Nov 19:17:05 19:18:28 11° 272° (W) 19:19:51 437.490
BRITE-PL 23 Nov 19:18:28 19:22:25 24° 68° (ENE) 19:26:09 437.365/2234.400
VERMONT LUNAR 23 Nov 19:21:41 19:25:17 62° 195° (SSW) 19:28:52 437.305
STRAND 1 23 Nov 19:22:22 19:27:26 65° 287° (WNW) 19:32:28 437.568
SEEDS 23 Nov 19:32:06 19:35:27 24° 68° (ENE) 19:38:50 437.485
GONETS M04 23 Nov 19:32:30 19:41:22 74° 81° (E) 19:50:08
DX 1 23 Nov 19:44:25 19:46:33 14° 62° (ENE) 19:48:41 434.975-435.025
HO-68 23 Nov 19:45:15 19:52:19 64° 69° (ENE) 19:59:26 435.675
SHINDAISAT 23 Nov 19:45:22 19:46:46 24° 242° (WSW) 19:48:07 437.305
AIST 1 23 Nov 19:49:34 19:53:56 70° 95° (E) 19:58:20
AAUSAT CUBESAT 2 23 Nov 19:53:59 19:57:38 31° 70° (ENE) 20:01:19 437.432
CANX-2 23 Nov 19:55:29 19:59:35 55° 74° (ENE) 20:03:44 2200.000
CUBESAT XI-V 23 Nov 19:56:57 20:00:44 25° 293° (WNW) 20:04:30 437.345
COMPASS 1 23 Nov 20:07:00 20:11:01 49° 73° (ENE) 20:15:03 437.405
DOVE 4 23 Nov 20:10:55 20:15:17 40° 72° (ENE) 20:19:27 437.250
ZACube-1 23 Nov 20:11:36 20:12:41 11° 63° (ENE) 20:13:46 437.345
DELFI C3 23 Nov 20:13:08 20:16:14 22° 68° (ENE) 20:19:22 145.870
RS-15 23 Nov 20:22:18 20:30:06 21° 346° (NNW) 20:38:02 29.354- 29.394
PCSat 23 Nov 20:23:42 20:29:06 79° 299° (WNW) 20:34:33 145.827
AISAT 23 Nov 20:27:24 20:29:17 13° 62° (ENE) 20:31:10 437.250
CUTE 1.7 & AOD 2 23 Nov 20:30:28 20:34:38 63° 259° (W) 20:38:50 437.475
PHONESAT 2.4 23 Nov 20:38:22 20:41:46 34° 204° (SSW) 20:45:10 2401.200-2431.200
GOMX 1 23 Nov 20:40:21 20:45:16 74° 258° (WSW) 20:49:51 467.674
BEESAT 3 23 Nov 20:44:30 20:48:35 80° 121° (ESE) 20:52:46 437.485
FUNcube-1 23 Nov 20:44:44 20:48:11 25° 69° (ENE) 20:51:36 145.935
UKube-1 23 Nov 20:45:04 20:49:19 57° 73° (ENE) 20:53:37 .
BRITE-PL 23 Nov 20:55:56 21:00:44 39° 262° (W) 21:05:13 437.365/2234.400
BEESAT 2 23 Nov 20:57:46 21:01:52 82° 302° (WNW) 21:06:05 435.950
CUBEBUG 2 23 Nov 20:57:49 21:01:57 48° 73° (ENE) 21:06:01 437.445
Oscar 11 23 Nov 20:58:21 21:02:38 86° 76° (ENE) 21:06:58 145.826/435.025
VERMONT LUNAR 23 Nov 21:00:43 21:03:23 19° 210° (SSW) 21:06:02 437.305
UWE-3 23 Nov 21:03:32 21:07:38 48° 73° (ENE) 21:11:40 435.000/436.395/437.385
CINEMA 3 23 Nov 21:06:00 21:10:28 85° 257° (WSW) 21:14:47 145.822/145.860
SEEDS 23 Nov 21:07:35 21:11:10 27° 264° (W) 21:14:48 437.485
DX 1 23 Nov 21:17:57 21:22:17 60° 259° (WSW) 21:26:38 434.975-435.025
AIST 2 23 Nov 21:20:34 21:24:47 85° 122° (ESE) 21:29:06 435.215
ESTCUBE 1 23 Nov 21:26:59 21:30:15 20° 65° (ENE) 21:33:32 437.505/2401.250
AAUSAT CUBESAT 2 23 Nov 21:30:13 21:33:22 21° 266° (W) 21:36:32 437.432
GONETS M04 23 Nov 21:30:51 21:37:12 23° 280° (W) 21:43:33
AIST 1 23 Nov 21:31:24 21:32:07 10° 293° (WNW) 21:32:50
CANX-2 23 Nov 21:34:16 21:35:53 12° 270° (W) 21:37:30 2200.000
HO-68 23 Nov 21:34:56 21:40:29 24° 267° (W) 21:46:05 435.675
VELOX 1 23 Nov 21:36:15 21:40:41 64° 74° (ENE) 21:45:08 145.980
ZACube-1 23 Nov 21:44:18 21:48:31 68° 259° (W) 21:52:42 437.345
COMPASS 1 23 Nov 21:45:04 21:47:02 13° 269° (W) 21:49:01 437.405
HUMSAT D 23 Nov 21:46:48 21:50:57 77° 76° (ENE) 21:55:05 437.325/437.525
DELFI C3 23 Nov 21:47:50 21:51:23 29° 264° (W) 21:54:58 145.870
DOVE 4 23 Nov 21:49:52 21:53:11 19° 266° (W) 21:56:23 437.250
50 SAT 23 Nov 21:52:50 21:56:52 76° 76° (ENE) 22:00:54 437.505
AISAT 23 Nov 22:00:53 22:05:22 68° 258° (WSW) 22:09:50 437.250
POLYITAN 1 23 Nov 22:03:42 22:06:29 17° 93° (E) 22:09:15 437.675
QB50P2 23 Nov 22:06:38 22:09:36 18° 93° (E) 22:12:33 145.880/145.840
PCSat 23 Nov 22:10:28 22:13:25 15° 320° (NW) 22:16:22 145.827
TIGRISAT 23 Nov 22:11:57 22:15:53 31° 97° (E) 22:19:52 435.000
DUCHIFAT 1 23 Nov 22:14:08 22:17:24 22° 95° (E) 22:20:40 145.980
FUNcube-1 23 Nov 22:20:54 22:24:28 26° 264° (W) 22:28:01 145.935
TISAT 1 23 Nov 22:21:29 22:24:22 18° 66° (ENE) 22:27:14 437.305
CUBEBUG 1 23 Nov 22:23:20 22:27:46 73° 75° (ENE) 22:32:13 437.445
SPROUT 23 Nov 22:23:33 22:26:15 16° 65° (ENE) 22:28:57 437.525
UNISAT 6 23 Nov 22:23:57 22:28:10 43° 99° (E) 22:32:28 437.425
UKube-1 23 Nov 22:23:57 22:25:50 13° 269° (W) 22:27:43 .
BEESAT 3 23 Nov 22:25:19 22:27:23 13° 319° (NW) 22:29:29 437.485
NANOSAT C BR1 23 Nov 22:32:38 22:36:32 35° 98° (E) 22:40:23 145.865
CUBEBUG 2 23 Nov 22:36:40 22:38:55 14° 268° (W) 22:41:08 437.445
RS-15 23 Nov 22:39:24 22:47:59 25° 23° (NNE) 22:56:46 29.354- 29.394
BEESAT 2 23 Nov 22:39:25 22:40:52 12° 321° (NW) 22:42:20 435.950
M-CUBED/EXP-1 PRIME 23 Nov 22:41:55 22:42:12 10° 53° (NE) 22:42:30 437.505
QB50P1 23 Nov 22:42:03 22:46:07 45° 99° (E) 22:50:09 145.935-145.965
UWE-3 23 Nov 22:42:14 22:44:26 14° 268° (W) 22:46:37 435.000/436.395/437.385
ANTELSAT 23 Nov 22:52:15 22:56:42 89° 103° (ESE) 23:01:14 437.575/2403.000
AIST 2 23 Nov 23:01:54 23:04:02 13° 320° (NW) 23:06:11 435.215
CUSAT 1 23 Nov 23:02:23 23:05:44 20° 76° (ENE) 23:09:47 437.405
ESTCUBE 1 23 Nov 23:02:33 23:06:50 41° 262° (W) 23:11:09 437.505/2401.250
BUGSAT 1 23 Nov 23:05:58 23:10:04 72° 102° (ESE) 23:14:06 437.445
POPSAT HIP 1 23 Nov 23:06:24 23:10:38 88° 103° (ESE) 23:14:51 437.405
VELOX 1 23 Nov 23:16:05 23:17:41 12° 270° (W) 23:19:17 145.980
DANDE 23 Nov 23:17:01 23:20:26 22° 77° (ENE) 23:24:40 436.750
ITUPSAT 1 23 Nov 23:35:00 23:38:16 19° 64° (ENE) 23:41:33 437.325
ISS 23 Nov 23:35:43 23:38:36 29° 135° (SE) 23:41:30 145.825
POLYITAN 1 23 Nov 23:38:39 23:42:36 39° 289° (WNW) 23:46:31 437.675
QB50P2 23 Nov 23:41:45 23:45:38 36° 289° (WNW) 23:49:30 145.880/145.840
SWISSCUBE 23 Nov 23:46:10 23:50:05 26° 67° (ENE) 23:54:02 437.505
TIGRISAT 23 Nov 23:48:59 23:52:30 24° 292° (WNW) 23:56:04 435.000
DUCHIFAT 1 23 Nov 23:49:36 23:53:18 30° 290° (WNW) 23:56:59 145.980
TISAT 1 23 Nov 23:55:52 23:59:54 40° 261° (W) 00:03:56 437.305
SPROUT 23 Nov 23:57:49 00:01:58 45° 261° (W) 00:06:08 437.525
UNISAT 6 24 Nov 00:01:40 00:04:40 18° 294° (WNW) 00:07:42 437.425
AUBIESAT-1 24 Nov 00:09:00 00:12:57 79° 71° (ENE) 00:17:19 437.475
NANOSAT C BR1 24 Nov 00:09:09 00:12:10 19° 294° (WNW) 00:15:12 145.865
M-CUBED/EXP-1 PRIME 24 Nov 00:12:30 00:16:26 85° 252° (WSW) 00:20:48 437.505
BEESAT 24 Nov 00:17:00 00:21:34 47° 71° (ENE) 00:26:11 436.000
QB50P1 24 Nov 00:19:07 00:21:39 16° 295° (WNW) 00:24:09 145.935-145.965
CUSAT 1 24 Nov 00:44:32 00:48:47 42° 263° (W) 00:54:23 437.405
STARS 24 Nov 00:49:29 00:51:51 14° 63° (ENE) 00:54:13 437.465
RS-15 24 Nov 00:52:03 01:03:11 63° 52° (NE) 01:14:45 29.354- 29.394
YUBILEINY 24 Nov 00:52:09 00:56:15 14° 75° (ENE) 01:00:20 435.215
DANDE 24 Nov 00:59:52 01:03:50 35° 263° (W) 01:09:00 436.750
Oscar 19 24 Nov 01:01:35 01:06:15 33° 97° (E) 01:10:54 437.125/150
ITUPSAT 1 24 Nov 01:11:07 01:15:46 50° 260° (W) 01:20:28 437.325
ISS 24 Nov 01:12:09 01:15:11 34° 332° (NNW) 01:18:15 145.825
MaSat-1 24 Nov 01:13:39 01:15:57 63° 246° (WSW) 01:18:18 437.345
KKS-1 24 Nov 01:22:49 01:27:04 46° 72° (ENE) 01:31:21 437.445
SWISSCUBE 24 Nov 01:23:26 01:27:47 34° 263° (W) 01:32:10 437.505
ITAMSAT 1 24 Nov 01:49:16 01:54:02 36° 97° (E) 01:58:45 435.822/435.867
BEESAT 24 Nov 01:56:26 01:59:40 18° 267° (W) 02:02:55 436.000
Gurwin Techsat 1B 24 Nov 02:07:37 02:12:20 31° 96° (E) 02:17:00 435.225
STARS 24 Nov 02:23:33 02:27:52 56° 259° (W) 02:32:13 437.465
HORYU 2 24 Nov 02:30:51 02:34:15 21° 94° (E) 02:37:40 437.375
AO-7 24 Nov 02:37:58 02:41:36 13° 88° (E) 02:45:13 29.400- 29.500
Oscar 19 24 Nov 02:41:03 02:45:28 29° 293° (WNW) 02:49:53 437.125/150
YUBILEINY 24 Nov 02:42:42 02:51:30 78° 94° (E) 03:00:17 435.215
ISS 24 Nov 02:50:51 02:52:36 14° 351° (N) 02:54:20 145.825
KKS-1 24 Nov 03:01:13 03:03:57 16° 268° (W) 03:06:42 437.445
RS-15 24 Nov 03:05:01 03:15:02 39° 253° (WSW) 03:25:27 29.354- 29.394
SO-50 24 Nov 03:25:39 03:29:26 27° 113° (ESE) 03:33:20 436.795
ITAMSAT 1 24 Nov 03:29:02 03:33:22 28° 294° (WNW) 03:37:41 435.822/435.867
PCSat 24 Nov 03:30:12 03:33:04 14° 40° (NE) 03:35:55 145.827
MOZHAYETS 4 24 Nov 03:47:19 03:51:38 42° 72° (ENE) 03:56:00
Gurwin Techsat 1B 24 Nov 03:47:33 03:52:14 33° 293° (WNW) 03:56:54 435.225
HORYU 2 24 Nov 04:06:55 04:11:01 36° 290° (WNW) 04:15:07 437.375
PRISM 24 Nov 04:14:17 04:16:51 16° 64° (ENE) 04:19:25 437.425
AO-7 24 Nov 04:27:15 04:35:39 75° 106° (ESE) 04:44:00 29.400- 29.500
ISS 24 Nov 04:28:19 04:30:18 15° 12° (NNE) 04:32:17 145.825
YUBILEINY 24 Nov 04:42:43 04:49:15 23° 295° (WNW) 04:55:50 435.215
JAS-2 24 Nov 04:43:56 04:50:34 39° 95° (E) 04:56:27 435.910
STRAND 1 24 Nov 05:00:22 05:04:14 22° 64° (ENE) 05:08:07 437.568
BEESAT 3 24 Nov 05:04:54 05:08:57 45° 53° (NE) 05:12:57 437.485
SO-50 24 Nov 05:05:43 05:09:51 34° 311° (NW) 05:14:08 436.795
PCSat 24 Nov 05:11:57 05:17:25 77° 60° (ENE) 05:22:49 145.827
BEESAT 2 24 Nov 05:18:26 05:22:36 56° 55° (NE) 05:26:42 435.950
CUBESAT XI-V 24 Nov 05:22:32 05:26:42 32° 69° (ENE) 05:30:53 437.345
MOZHAYETS 4 24 Nov 05:25:53 05:29:03 18° 268° (W) 05:32:15
AIST 2 24 Nov 05:43:02 05:47:15 51° 54° (NE) 05:51:24 435.215
PRISM 24 Nov 05:48:00 05:52:01 45° 261° (W) 05:56:06 437.425
Cubesat XI-IV 24 Nov 05:50:21 05:55:14 36° 97° (E) 06:00:04 437.490
AIST 1 24 Nov 05:58:22 06:01:18 17° 71° (ENE) 06:04:13
ISS 24 Nov 06:04:23 06:07:35 46° 31° (NNE) 06:10:47 145.825
AO-7 24 Nov 06:21:08 06:27:39 27° 305° (NW) 06:34:11 29.400- 29.500
O/OREOS (USA 219) 24 Nov 06:25:18 06:29:48 84° 292° (WNW) 06:34:18 437.305
JAS-2 24 Nov 06:28:59 06:35:31 38° 295° (WNW) 06:41:23 435.910
CUTE-I 24 Nov 06:32:06 06:37:27 85° 104° (ESE) 06:42:45 437.470
STRAND 1 24 Nov 06:38:10 06:43:06 46° 261° (W) 06:48:03 437.568
GONETS M04 24 Nov 06:41:01 06:45:52 16° 76° (ENE) 06:50:43
BEESAT 3 24 Nov 06:44:07 06:46:50 17° 250° (WSW) 06:49:31 437.485
PCSat 24 Nov 06:57:25 07:00:06 14° 257° (WSW) 07:02:47 145.827
BEESAT 2 24 Nov 06:58:19 07:00:24 14° 251° (WSW) 07:02:29 435.950
CUBESAT XI-V 24 Nov 07:00:13 07:04:08 26° 265° (W) 07:08:05 437.345
AIST 2 24 Nov 07:22:53 07:25:27 16° 251° (WSW) 07:28:00 435.215
Cubesat XI-IV 24 Nov 07:30:39 07:35:11 29° 294° (WNW) 07:39:41 437.490
AIST 1 24 Nov 07:35:04 07:39:09 39° 268° (W) 07:43:11
ISS 24 Nov 07:41:31 07:44:01 20° 227° (SW) 07:46:30 145.825
CUTE-I 24 Nov 08:14:23 08:16:45 13° 301° (WNW) 08:19:08 437.470
CUTE 1.7 & AOD 2 24 Nov 08:16:55 08:20:18 22° 94° (E) 08:23:41 437.475
GONETS M04 24 Nov 08:32:27 08:41:15 85° 96° (E) 08:50:09
GOMX 1 24 Nov 08:43:00 08:46:36 28° 96° (E) 08:50:16 467.674
Oscar 11 24 Nov 08:47:24 08:50:06 16° 92° (E) 08:52:48 145.826/435.025
SEEDS 24 Nov 08:52:02 08:56:11 48° 99° (E) 09:00:18 437.485
POLYITAN 1 24 Nov 08:58:00 09:00:12 14° 64° (ENE) 09:02:25 437.675
QB50P2 24 Nov 09:00:37 09:03:02 15° 64° (ENE) 09:05:27 145.880/145.840
HO-68 24 Nov 09:00:43 09:07:53 68° 104° (ESE) 09:14:59 435.675
BRITE-PL 24 Nov 09:00:53 09:05:01 65° 101° (E) 09:09:09 437.365/2234.400
CINEMA 3 24 Nov 09:01:56 09:05:10 21° 95° (E) 09:08:27 145.822/145.860
DX 1 24 Nov 09:07:26 09:10:54 23° 95° (E) 09:14:21 434.975-435.025
DUCHIFAT 1 24 Nov 09:07:35 09:10:23 17° 66° (ENE) 09:13:11 145.980
TIGRISAT 24 Nov 09:11:16 09:14:49 26° 69° (ENE) 09:18:22 435.000
AAUSAT CUBESAT 2 24 Nov 09:13:00 09:17:12 62° 101° (E) 09:21:24 437.432
CANX-2 24 Nov 09:17:08 09:21:24 69° 285° (WNW) 09:25:40 2200.000
UNISAT 6 24 Nov 09:23:21 09:27:16 36° 71° (ENE) 09:31:11 437.425
NANOSAT C BR1 24 Nov 09:25:44 09:29:19 27° 69° (ENE) 09:32:54 145.865
COMPASS 1 24 Nov 09:26:51 09:31:06 80° 284° (WNW) 09:35:21 437.405
DELFI C3 24 Nov 09:28:38 09:32:31 38° 98° (E) 09:36:23 145.870
VELOX 1 24 Nov 09:29:40 09:31:30 12° 91° (E) 09:33:19 145.980
HUMSAT D 24 Nov 09:33:39 09:35:33 13° 91° (E) 09:37:28 437.325/437.525
ZACube-1 24 Nov 09:34:00 09:37:21 22° 95° (E) 09:40:43 437.345
QB50P1 24 Nov 09:35:02 09:38:53 34° 70° (ENE) 09:42:44 145.935-145.965
50 SAT 24 Nov 09:36:48 09:37:48 11° 90° (E) 09:38:49 437.505
DOVE 4 24 Nov 09:47:44 09:51:53 69° 285° (WNW) 09:56:06 437.250
ANTELSAT 24 Nov 09:51:27 09:55:43 76° 76° (ENE) 10:00:00 437.575/2403.000
CUTE 1.7 & AOD 2 24 Nov 09:52:29 09:56:15 31° 290° (WNW) 10:00:01 437.475
AISAT 24 Nov 09:53:13 09:56:46 23° 95° (E) 10:00:17 437.250
BUGSAT 1 24 Nov 09:55:53 09:59:59 48° 73° (ENE) 10:04:05 437.445
POPSAT HIP 1 24 Nov 09:59:07 10:03:21 64° 74° (ENE) 10:07:34 437.405
FUNcube-1 24 Nov 10:09:01 10:13:10 55° 100° (E) 10:17:22 145.935
UKube-1 24 Nov 10:09:21 10:13:41 73° 285° (WNW) 10:18:00 .
CUBEBUG 1 24 Nov 10:14:41 10:16:55 14° 91° (E) 10:19:08 437.445
GOMX 1 24 Nov 10:21:25 10:24:38 22° 292° (WNW) 10:27:53 467.674
Oscar 11 24 Nov 10:22:21 10:26:29 44° 288° (WNW) 10:30:36 145.826/435.025
CUBEBUG 2 24 Nov 10:25:42 10:29:54 68° 285° (WNW) 10:34:11 437.445
SEEDS 24 Nov 10:29:08 10:31:37 15° 295° (WNW) 10:34:06 437.485
UWE-3 24 Nov 10:30:05 10:34:18 71° 285° (WNW) 10:38:35 435.000/436.395/437.385
POLYITAN 1 24 Nov 10:31:33 10:35:43 53° 260° (W) 10:39:54 437.675
GONETS M04 24 Nov 10:33:04 10:39:14 21° 297° (WNW) 10:45:28
QB50P2 24 Nov 10:34:25 10:38:33 49° 260° (W) 10:42:42 145.880/145.840
CINEMA 3 24 Nov 10:38:44 10:42:26 31° 289° (WNW) 10:46:12 145.822/145.860
DUCHIFAT 1 24 Nov 10:41:55 10:45:56 41° 261° (W) 10:49:59 145.980
BRITE-PL 24 Nov 10:42:17 10:43:00 10° 298° (WNW) 10:43:43 437.365/2234.400
DX 1 24 Nov 10:43:20 10:47:10 31° 291° (WNW) 10:50:57 434.975-435.025
TIGRISAT 24 Nov 10:47:58 10:51:31 25° 264° (W) 10:55:05 435.000
HO-68 24 Nov 10:49:28 10:54:58 25° 302° (WNW) 11:00:27 435.675
AAUSAT CUBESAT 2 24 Nov 10:50:44 10:52:21 12° 297° (WNW) 10:53:59 437.432
ESTCUBE 1 24 Nov 10:55:42 11:00:01 42° 99° (E) 11:04:17 437.505/2401.250
UNISAT 6 24 Nov 11:01:11 11:04:11 19° 267° (W) 11:07:12 437.425
NANOSAT C BR1 24 Nov 11:01:37 11:05:09 25° 264° (W) 11:08:42 145.865
VELOX 1 24 Nov 11:04:06 11:08:28 59° 287° (WNW) 11:12:47 145.980
DELFI C3 24 Nov 11:04:46 11:07:32 18° 294° (WNW) 11:10:18 145.870
HUMSAT D 24 Nov 11:07:37 11:11:39 50° 287° (WNW) 11:15:43 437.325/437.525
50 SAT 24 Nov 11:09:29 11:13:28 57° 286° (WNW) 11:17:28 437.505
ZACube-1 24 Nov 11:10:03 11:13:44 30° 290° (WNW) 11:17:28 437.345
QB50P1 24 Nov 11:11:42 11:14:51 20° 266° (W) 11:18:00 145.935-145.965
AISAT 24 Nov 11:29:31 11:33:25 31° 291° (WNW) 11:37:18 437.250
BUGSAT 1 24 Nov 11:33:28 11:35:44 14° 268° (W) 11:38:01 437.445
POPSAT HIP 1 24 Nov 11:38:46 11:39:39 11° 270° (W) 11:40:33 437.405
TISAT 1 24 Nov 11:41:29 11:45:15 31° 97° (E) 11:48:58 437.305
SPROUT 24 Nov 11:45:15 11:49:03 30° 96° (E) 11:52:49 437.525
FUNcube-1 24 Nov 11:47:04 11:49:05 13° 296° (WNW) 11:51:06 145.935
CUBEBUG 1 24 Nov 11:49:21 11:53:36 51° 287° (WNW) 11:57:48 437.445
SO-50 24 Nov 11:56:52 12:01:03 28° 47° (NE) 12:05:15 436.795
CUSAT 1 24 Nov 12:17:55 12:18:53 11° 93° (E) 12:19:50 437.405
Oscar 19 24 Nov 12:18:09 12:23:01 47° 71° (ENE) 12:27:55 437.125/150
BEESAT 24 Nov 12:19:47 12:21:46 12° 90° (E) 12:23:44 436.000
ESTCUBE 1 24 Nov 12:33:22 12:36:35 19° 295° (WNW) 12:39:47 437.505/2401.250
DANDE 24 Nov 12:34:30 12:36:28 17° 95° (E) 12:38:17 436.750
YUBILEINY 24 Nov 12:53:42 13:01:41 38° 72° (ENE) 13:09:34 435.215
ITAMSAT 1 24 Nov 13:06:51 13:11:55 54° 72° (ENE) 13:17:00 435.822/435.867
ITUPSAT 1 24 Nov 13:12:12 13:16:47 43° 99° (E) 13:21:20 437.325
TISAT 1 24 Nov 13:17:41 13:20:55 22° 293° (WNW) 13:24:08 437.305
SPROUT 24 Nov 13:21:37 13:24:59 23° 292° (WNW) 13:28:20 437.525
SWISSCUBE 24 Nov 13:23:46 13:28:33 63° 101° (ESE) 13:33:17 437.505
AUBIESAT-1 24 Nov 13:26:32 13:31:28 74° 107° (ESE) 13:36:17 437.475
Gurwin Techsat 1B 24 Nov 13:28:19 13:33:23 48° 71° (ENE) 13:38:30 435.225
HORYU 2 24 Nov 13:29:46 13:32:57 20° 65° (ENE) 13:36:09 437.375
M-CUBED/EXP-1 PRIME 24 Nov 13:30:26 13:35:24 87° 108° (ESE) 13:40:16 437.505
AO-7 24 Nov 13:36:13 13:42:10 23° 52° (NE) 13:48:07 29.400- 29.500
SO-50 24 Nov 13:37:09 13:41:44 41° 244° (WSW) 13:46:19 436.795
VERMONT LUNAR 24 Nov 13:52:13 13:53:25 11° 145° (SE) 13:54:36 437.305
BEESAT 24 Nov 13:55:17 14:00:04 68° 286° (WNW) 14:04:48 436.000
Oscar 19 24 Nov 13:58:53 14:02:35 20° 267° (W) 14:06:19 437.125/150
CUSAT 1 24 Nov 14:00:25 14:01:53 13° 286° (WNW) 14:03:18 437.405
